WXM80 ListenWXM80 Stop

You find our weather info also at:

UK Metoffice

WeatherCloud

Weather Underground

Northeastern Weather Network

AWEKAS

Citizen Weather Observer Program (CWOP)

HAMweather, WeatherForYou, PWS Weather


Weather Underground History page Text

Daily Summary for December 22, 2017 Units:  Metric    English   Both
« Previous Day
Next Day »
Daily Weekly Monthly Yearly Custom
  High: Low: Average:
Temperature: -17.8 °C 0.4 °C 3.4 °C
Dew Point: -17.8 °C -6.1 °C -0.8 °C
Humidity: Humidity % 58 % 75 %
Wind Speed: 0 km/h 0 km/h 3.9 km/h
Wind Gust: 0 km/h - -
Wind:- - East
Pressure: 0 hPa 1019.9 hPa -
Precipitation: 0 mm    
Historical Graphs
 
 
Tabular Data for December 22, 2017
Time Temperature Dew Point Pressure Wind Wind Speed Wind Gust Humidity Rainfall Rate (Hourly)
-17.8 °C -17.8 °C 0 hPa Calm     Humidity % 0 mm
00:01 0.9 °C -4.5 °C 1025.3 hPa ESE 3.2 km/h 3.7 km/h 67 % 0 mm
00:03 0.9 °C -4.5 °C 1024.9 hPa ESE 2.4 km/h 3.7 km/h 67 % 0 mm
00:10 0.8 °C -4.6 °C 1025.3 hPa Calm     67 % 0 mm
00:11 0.8 °C -4.6 °C 1025.3 hPa Calm     67 % 0 mm
00:16 0.8 °C -4.7 °C 1025.3 hPa ESE 0.5 km/h 1.9 km/h 67 % 0 mm
00:20 0.8 °C -4.7 °C 1025.3 hPa Calm     67 % 0 mm
00:23 0.7 °C -4.7 °C 1025.3 hPa ESE 0.2 km/h   67 % 0 mm
00:28 0.7 °C -4.7 °C 1025.3 hPa ESE 1.3 km/h 3.7 km/h 67 % 0 mm
00:33 0.7 °C -4.8 °C 1025.3 hPa Calm     67 % 0 mm
00:36 0.7 °C -4.6 °C 1025.3 hPa ESE 0.5 km/h 1.9 km/h 68 % 0 mm
00:37 0.7 °C -4.6 °C 1024.9 hPa Calm   1.9 km/h 68 % 0 mm
00:42 0.7 °C -4.6 °C 1025.3 hPa ESE 0.2 km/h 1.9 km/h 68 % 0 mm
00:43 0.6 °C -4.6 °C 1024.9 hPa Calm   1.9 km/h 68 % 0 mm
00:47 0.6 °C -4.6 °C 1024.9 hPa SE 1.8 km/h 5.6 km/h 68 % 0 mm
00:51 0.6 °C -4.8 °C 1025.3 hPa SE 2.3 km/h 5.6 km/h 67 % 0 mm
00:56 0.7 °C -4.9 °C 1025.3 hPa ESE 2.1 km/h 5.6 km/h 66 % 0 mm
01:01 0.7 °C -4.9 °C 1025.3 hPa ESE 1 km/h 3.7 km/h 66 % 0 mm
01:02 0.7 °C -5.2 °C 1025.3 hPa ESE 1.3 km/h 3.7 km/h 65 % 0 mm
01:08 0.7 °C -4.9 °C 1025.3 hPa ESE 1.6 km/h 5.6 km/h 66 % 0 mm
01:13 0.7 °C -4.9 °C 1025.3 hPa ESE 0.8 km/h 4.8 km/h 66 % 0 mm
01:14 0.7 °C -4.9 °C 1025.3 hPa ESE 1.6 km/h 5.6 km/h 66 % 0 mm
01:15 0.7 °C -4.9 °C 1025.3 hPa Calm   5.6 km/h 66 % 0 mm
01:20 0.8 °C -4.8 °C 1025.6 hPa ESE 0.5 km/h 1.9 km/h 66 % 0 mm
01:22 0.8 °C -4.8 °C 1025.6 hPa Calm     66 % 0 mm
01:27 0.8 °C -5.1 °C 1025.6 hPa ESE 0.3 km/h 3.7 km/h 65 % 0 mm
01:28 0.8 °C -5.1 °C 1025.6 hPa ESE 1.1 km/h 3.7 km/h 65 % 0 mm
01:33 0.8 °C -5.1 °C 1025.6 hPa ESE 2.6 km/h 5.6 km/h 65 % 0 mm
01:34 0.8 °C -5.1 °C 1025.6 hPa ESE 1.1 km/h 3.7 km/h 65 % 0 mm
01:39 0.8 °C -5.3 °C 1025.6 hPa SE 2.4 km/h 5.6 km/h 64 % 0 mm
01:41 0.8 °C -5.3 °C 1025.6 hPa SE 1.6 km/h 1.9 km/h 64 % 0 mm
01:42 0.8 °C -5.3 °C 1025.6 hPa SE 1.8 km/h 3.7 km/h 64 % 0 mm
01:47 0.7 °C -5.3 °C 1025.6 hPa Calm   3.7 km/h 64 % 0 mm
01:48 0.7 °C -5.3 °C 1025.6 hPa Calm     64 % 0 mm
01:55 0.7 °C -5.4 °C 1026 hPa SE 0.2 km/h 1.6 km/h 64 % 0 mm
02:00 0.7 °C -5.4 °C 1026 hPa Calm   1.9 km/h 64 % 0 mm
02:01 0.7 °C -5.4 °C 1026 hPa SE 1.6 km/h 3.7 km/h 64 % 0 mm
02:10 0.6 °C -5.6 °C 1026 hPa Calm   1.9 km/h 63 % 0 mm
02:15 0.6 °C -5.7 °C 1025.6 hPa Calm     63 % 0 mm
02:17 0.6 °C -5.7 °C 1026 hPa SE 0.5 km/h 3.7 km/h 63 % 0 mm
02:22 0.5 °C -5.7 °C 1026 hPa SE 2.3 km/h 3.7 km/h 63 % 0 mm
02:24 0.5 °C -5.7 °C 1026 hPa SE 1.8 km/h 5.6 km/h 63 % 0 mm
02:26 0.5 °C -5.7 °C 1026 hPa SE 0.8 km/h 3.7 km/h 63 % 0 mm
02:31 0.4 °C -5.8 °C 1026 hPa SE 1.6 km/h 5.6 km/h 63 % 0 mm
02:36 0.4 °C -5.8 °C 1026 hPa SE 1.4 km/h 3.7 km/h 63 % 0 mm
02:37 0.4 °C -5.8 °C 1026 hPa SE 1.4 km/h 3.7 km/h 63 % 0 mm
02:42 0.4 °C -5.8 °C 1025.6 hPa SE 2.3 km/h 5.6 km/h 63 % 0 mm
02:46 0.4 °C -5.8 °C 1025.6 hPa SE 2.3 km/h 5.6 km/h 63 % 0 mm
02:51 0.4 °C -5.8 °C 1026 hPa SE 1 km/h 3.7 km/h 63 % 0 mm
02:52 0.4 °C -5.8 °C 1026 hPa Calm   1.9 km/h 63 % 0 mm
02:56 0.4 °C -5.8 °C 1026 hPa Calm     63 % 0 mm
03:00 0.4 °C -6 °C 1026 hPa Calm     62 % 0 mm
03:06 0.4 °C -6 °C 1026 hPa Calm     62 % 0 mm
03:11 0.4 °C -5.8 °C 1025.6 hPa SE 0.5 km/h 1.9 km/h 63 % 0 mm
03:13 0.4 °C -5.8 °C 1026 hPa SE 1.1 km/h 1.9 km/h 63 % 0 mm
03:18 0.4 °C -5.8 °C 1026 hPa Calm   1.9 km/h 63 % 0 mm
03:20 0.4 °C -5.8 °C 1026 hPa Calm     63 % 0 mm
03:25 0.4 °C -5.8 °C 1026 hPa SE 0.3 km/h 1.9 km/h 63 % 0 mm
03:32 0.4 °C -5.6 °C 1026 hPa Calm     64 % 0 mm
03:37 0.4 °C -5.8 °C 1026 hPa Calm     63 % 0 mm
03:46 0.4 °C -6 °C 1026 hPa Calm     62 % 0 mm
03:51 0.4 °C -6 °C 1026 hPa Calm     62 % 0 mm
03:57 0.4 °C -6 °C 1026 hPa SE 0.5 km/h 3.2 km/h 62 % 0 mm
03:58 0.4 °C -6 °C 1026 hPa SE 0.5 km/h 3.7 km/h 62 % 0 mm
04:05 0.4 °C -6 °C 1026 hPa SE 3.5 km/h 4.8 km/h 62 % 0 mm
04:10 0.5 °C -5.9 °C 1026 hPa SE 0.3 km/h 3.7 km/h 62 % 0 mm
04:15 0.5 °C -5.9 °C 1025.6 hPa Calm   3.7 km/h 62 % 0 mm
04:17 0.6 °C -5.9 °C 1025.6 hPa ESE 1 km/h 3.7 km/h 62 % 0 mm
04:25 0.6 °C -6.1 °C 1025.6 hPa ESE 1.9 km/h 3.7 km/h 61 % 0 mm
04:26 0.6 °C -6.1 °C 1025.6 hPa ESE 1.6 km/h 3.7 km/h 61 % 0 mm
04:32 0.7 °C -6 °C 1026 hPa ESE 0.3 km/h 3.7 km/h 61 % 0 mm
04:37 0.7 °C -5.9 °C 1026 hPa Calm     61 % 0 mm
04:39 0.7 °C -5.9 °C 1026 hPa ESE 0.2 km/h 1.9 km/h 61 % 0 mm
04:44 0.7 °C -5.7 °C 1026 hPa Calm     62 % 0 mm
04:45 0.7 °C -5.7 °C 1026 hPa ESE 0.8 km/h 1.9 km/h 62 % 0 mm
04:50 0.8 °C -5.7 °C 1026 hPa Calm   1.9 km/h 62 % 0 mm
04:51 0.8 °C -5.7 °C 1026 hPa Calm   1.6 km/h 62 % 0 mm
05:01 0.8 °C -5.8 °C 1026 hPa Calm     61 % 0 mm
05:03 0.8 °C -5.6 °C 1026 hPa ESE 0.2 km/h 1.6 km/h 62 % 0 mm
05:06 0.8 °C -5.8 °C 1026 hPa Calm     61 % 0 mm
05:11 0.9 °C -5.8 °C 1025.6 hPa ESE 0.8 km/h 3.7 km/h 61 % 0 mm
05:12 0.9 °C -5.6 °C 1025.6 hPa ESE 0.6 km/h 3.7 km/h 62 % 0 mm
05:17 0.9 °C -5.5 °C 1026 hPa Calm     62 % 0 mm
05:20 0.9 °C -5.5 °C 1025.6 hPa ESE 1.1 km/h 3.7 km/h 62 % 0 mm
05:25 1 °C -5.5 °C 1025.6 hPa ESE 2.7 km/h 5.6 km/h 62 % 0 mm
05:30 1.1 °C -5.2 °C 1025.6 hPa ESE 0.8 km/h 3.7 km/h 63 % 0 mm
05:32 1.1 °C -5.2 °C 1025.6 hPa East 3.4 km/h 7.4 km/h 63 % 0 mm
05:37 1.2 °C -5.1 °C 1025.6 hPa East 2.7 km/h 5.6 km/h 63 % 0 mm
05:38 1.2 °C -5.1 °C 1025.6 hPa East 1.9 km/h 5.6 km/h 63 % 0 mm
05:43 1.2 °C -5.3 °C 1025.6 hPa SE 3.2 km/h 5.6 km/h 62 % 0 mm
05:46 1.2 °C -5.3 °C 1025.6 hPa East 1.6 km/h 5.6 km/h 62 % 0 mm
05:51 1.3 °C -5.4 °C 1025.6 hPa East 1.9 km/h 5.6 km/h 61 % 0 mm
05:52 1.3 °C -5.4 °C 1025.6 hPa East 1.9 km/h 5.6 km/h 61 % 0 mm
05:58 1.3 °C -5.7 °C 1025.6 hPa East 4.2 km/h 7.4 km/h 60 % 0 mm
06:00 1.3 °C -5.7 °C 1025.6 hPa East 3.5 km/h 7.4 km/h 60 % 0 mm
06:05 1.3 °C -5.7 °C 1026 hPa East 4.5 km/h 7.4 km/h 60 % 0 mm
06:06 1.3 °C -5.9 °C 1026 hPa East 2.7 km/h 7.4 km/h 59 % 0 mm
06:08 1.3 °C -5.9 °C 1026 hPa East 3.7 km/h 5.6 km/h 59 % 0 mm
06:12 1.3 °C -5.7 °C 1026 hPa ESE 2.1 km/h 5.6 km/h 60 % 0 mm
06:15 1.3 °C -5.7 °C 1026 hPa ESE 1.8 km/h 3.7 km/h 60 % 0 mm
06:23 1.3 °C -6.1 °C 1026 hPa ESE 2.9 km/h 5.6 km/h 58 % 0 mm
06:28 1.3 °C -6.1 °C 1026.3 hPa East 2.1 km/h 8 km/h 58 % 0 mm
06:34 1.3 °C -5.8 °C 1026 hPa East 3.4 km/h 7.4 km/h 59 % 0 mm
06:36 1.3 °C -5.8 °C 1026 hPa East 1.8 km/h 5.6 km/h 59 % 0 mm
06:41 1.4 °C -6 °C 1026 hPa East 5.8 km/h 9.7 km/h 58 % 0 mm
06:42 1.4 °C -5.8 °C 1026 hPa East 5.5 km/h 8 km/h 59 % 0 mm
06:47 1.4 °C -5.7 °C 1026 hPa East 3.2 km/h 7.4 km/h 59 % 0 mm
06:51 1.5 °C -5.7 °C 1026 hPa East 5 km/h 11.3 km/h 59 % 0 mm
06:56 1.6 °C -5.8 °C 1026 hPa East 6 km/h 9.3 km/h 58 % 0 mm
06:58 1.6 °C -5.8 °C 1026 hPa East 7.4 km/h 9.3 km/h 58 % 0 mm
07:03 1.7 °C -5.5 °C 1026 hPa East 6.9 km/h 11.3 km/h 59 % 0 mm
07:04 1.7 °C -5.5 °C 1026 hPa East 6.8 km/h 11.1 km/h 59 % 0 mm
07:09 1.7 °C -5.3 °C 1026 hPa East 2.6 km/h 5.6 km/h 60 % 0 mm
07:11 1.7 °C -5.3 °C 1026 hPa East 4.3 km/h 5.6 km/h 60 % 0 mm
07:16 1.7 °C -5.1 °C 1026 hPa East 6.4 km/h 9.3 km/h 61 % 0 mm
07:19 1.7 °C -5.3 °C 1026 hPa East 6 km/h 11.1 km/h 60 % 0 mm
07:24 1.7 °C -5.1 °C 1025.6 hPa East 4.8 km/h 9.3 km/h 61 % 0 mm
07:25 1.7 °C -5.1 °C 1026 hPa East 5.5 km/h 9.3 km/h 61 % 0 mm
07:30 1.7 °C -5 °C 1025.6 hPa East 5.3 km/h 9.3 km/h 61 % 0 mm
07:33 1.7 °C -5 °C 1025.6 hPa ESE 8.5 km/h 11.1 km/h 61 % 0 mm
07:38 1.7 °C -5 °C 1025.6 hPa East 6.4 km/h 13 km/h 61 % 0 mm
07:43 1.8 °C -4.9 °C 1025.6 hPa East 4.2 km/h 9.3 km/h 61 % 0 mm
07:46 1.8 °C -4.9 °C 1025.3 hPa East 5.1 km/h 11.1 km/h 61 % 0 mm
07:51 1.8 °C -5.2 °C 1025.6 hPa SE 4.2 km/h 9.3 km/h 60 % 0 mm
07:54 1.8 °C -5.2 °C 1025.6 hPa East 5.8 km/h 9.7 km/h 60 % 0 mm
07:56 1.8 °C -5.2 °C 1025.3 hPa ESE 3.7 km/h 9.3 km/h 60 % 0 mm
08:00 1.8 °C -4.9 °C 1025.6 hPa East 4 km/h 8 km/h 61 % 0 mm
08:07 1.8 °C -4.9 °C 1025.6 hPa East 6.8 km/h 8 km/h 61 % 0 mm
08:12 1.8 °C -4.9 °C 1025.6 hPa East 6.4 km/h 9.3 km/h 61 % 0 mm
08:14 1.8 °C -4.9 °C 1025.6 hPa East 7.4 km/h 9.7 km/h 61 % 0 mm
08:24 1.9 °C -4.4 °C 1025.6 hPa East 5.8 km/h 9.3 km/h 63 % 0 mm
08:26 1.9 °C -4.4 °C 1025.6 hPa East 4 km/h 7.4 km/h 63 % 0 mm
08:31 1.9 °C -4.4 °C 1025.6 hPa East 5 km/h 9.3 km/h 63 % 0 mm
08:35 2 °C -4.3 °C 1025.6 hPa ESE 7.1 km/h 13 km/h 63 % 0 mm
08:40 2.1 °C -4.3 °C 1025.6 hPa East 5.3 km/h 9.3 km/h 63 % 0 mm
08:44 2.1 °C -4.2 °C 1025.6 hPa East 6.6 km/h 9.3 km/h 63 % 0 mm
08:48 2.2 °C -3.9 °C 1025.6 hPa East 4.8 km/h 9.3 km/h 64 % 0 mm
08:53 2.2 °C -3.9 °C 1025.3 hPa East 7.6 km/h 9.7 km/h 64 % 0 mm
08:58 2.2 °C -3.9 °C 1025.3 hPa East 8.2 km/h 11.1 km/h 64 % 0 mm
09:07 2.3 °C -3.6 °C 1025.3 hPa SE 4 km/h 9.3 km/h 65 % 0 mm
09:13 2.4 °C -3.7 °C 1025.6 hPa East 6.9 km/h 9.7 km/h 64 % 0 mm
09:18 2.4 °C -3.5 °C 1025.6 hPa East 3.1 km/h 7.4 km/h 65 % 0 mm
09:19 2.4 °C -3.5 °C 1025.6 hPa East 6 km/h 8 km/h 65 % 0 mm
09:24 2.5 °C -3.4 °C 1025.6 hPa East 3.7 km/h 9.3 km/h 65 % 0 mm
09:25 2.5 °C -3.4 °C 1025.6 hPa East 3.4 km/h 8 km/h 65 % 0 mm
09:27 2.6 °C -3.2 °C 1025.6 hPa East 3.7 km/h 9.3 km/h 66 % 0 mm
09:33 2.7 °C -3.1 °C 1025.6 hPa East 4.7 km/h 11.1 km/h 66 % 0 mm
09:43 2.7 °C -3 °C 1025.6 hPa East 1.9 km/h 5.6 km/h 66 % 0 mm
09:48 2.8 °C -2.9 °C 1025.6 hPa East 2.7 km/h 5.6 km/h 66 % 0 mm
09:53 2.8 °C -2.7 °C 1025.6 hPa East 6 km/h 8 km/h 67 % 0 mm
09:58 2.9 °C -2.7 °C 1025.6 hPa ESE 2.6 km/h 5.6 km/h 67 % 0 mm
10:05 3 °C -2.7 °C 1025.6 hPa East 2.9 km/h 9.3 km/h 66 % 0 mm
10:06 3 °C -2.7 °C 1025.3 hPa East 3.2 km/h 9.7 km/h 66 % 0 mm
10:11 3.1 °C -2.5 °C 1025.3 hPa ESE 1.9 km/h 7.4 km/h 67 % 0 mm
10:16 3.1 °C -2.6 °C 1025.3 hPa ESE 2.1 km/h 4.8 km/h 66 % 0 mm
10:18 3.1 °C -2.4 °C 1025.3 hPa East 1.9 km/h 5.6 km/h 67 % 0 mm
10:20 3.2 °C -2.4 °C 1025.3 hPa East 2.6 km/h 7.4 km/h 67 % 0 mm
10:25 3.2 °C -2.5 °C 1025.3 hPa East 2.6 km/h 5.6 km/h 66 % 0 mm
10:27 3.2 °C -2.3 °C 1025.3 hPa ESE 2.9 km/h 6.4 km/h 67 % 0 mm
10:32 3.3 °C -2.3 °C 1024.9 hPa East 1.3 km/h 5.6 km/h 67 % 0 mm
10:42 3.3 °C -2.2 °C 1024.6 hPa East 1.6 km/h 3.7 km/h 67 % 0 mm
10:47 3.4 °C -1.9 °C 1024.3 hPa ENE 1.6 km/h 5.6 km/h 68 % 0 mm
10:50 3.4 °C -2.1 °C 1024.6 hPa ENE 3.4 km/h 5.6 km/h 67 % 0 mm
10:53 3.5 °C -2.1 °C 1024.6 hPa East 3.4 km/h 5.6 km/h 67 % 0 mm
11:03 3.6 °C -1.8 °C 1024.3 hPa East 2.4 km/h 5.6 km/h 68 % 0 mm
11:06 3.6 °C -1.7 °C 1024.3 hPa East 1 km/h 3.2 km/h 68 % 0 mm
11:11 3.7 °C -1.7 °C 1023.9 hPa East 2.4 km/h 5.6 km/h 68 % 0 mm
11:15 3.7 °C -1.7 °C 1023.9 hPa Calm     68 % 0 mm
11:20 3.8 °C -1.6 °C 1023.9 hPa East 1.3 km/h 3.7 km/h 68 % 0 mm
11:24 3.8 °C -1.6 °C 1023.9 hPa Calm   1.9 km/h 68 % 0 mm
11:29 3.8 °C -1.3 °C 1023.9 hPa East 0.2 km/h 1.9 km/h 69 % 0 mm
11:41 4 °C -1.4 °C 1023.9 hPa Calm   1.9 km/h 68 % 0 mm
11:46 4.1 °C -1.1 °C 1023.9 hPa NNE 1.3 km/h 3.7 km/h 69 % 0 mm
11:47 4.1 °C -1.1 °C 1023.6 hPa NE 2.3 km/h 3.7 km/h 69 % 0 mm
11:52 4.2 °C -0.9 °C 1023.6 hPa ENE 2.4 km/h 5.6 km/h 69 % 0 mm
11:57 4.3 °C -0.9 °C 1023.2 hPa Calm   3.7 km/h 69 % 0 mm
11:58 4.3 °C -0.8 °C 1023.2 hPa Calm   3.7 km/h 69 % 0 mm
12:00 4.3 °C -0.8 °C 1023.2 hPa East 1.4 km/h 3.7 km/h 69 % 0 mm
12:05 4.4 °C -0.8 °C 1023.2 hPa East 2.4 km/h 5.6 km/h 69 % 0 mm
12:10 4.6 °C -0.7 °C 1023.2 hPa East 2.3 km/h 3.7 km/h 69 % 0 mm
12:11 4.6 °C -0.7 °C 1023.2 hPa East 2.6 km/h 4.8 km/h 69 % 0 mm
12:12 4.6 °C -0.6 °C 1023.2 hPa East 2.9 km/h 5.6 km/h 69 % 0 mm
12:16 4.7 °C -0.6 °C 1022.9 hPa East 3.1 km/h 7.4 km/h 69 % 0 mm
12:21 4.8 °C -0.4 °C 1022.9 hPa East 2.1 km/h 5.6 km/h 69 % 0 mm
12:24 4.8 °C -0.4 °C 1022.9 hPa East 0.6 km/h 3.7 km/h 69 % 0 mm
12:31 4.9 °C -0.3 °C 1022.6 hPa East 0.2 km/h 3.7 km/h 69 % 0 mm
12:36 5 °C 0 °C 1022.2 hPa East 1.6 km/h 3.7 km/h 70 % 0 mm
12:41 5.1 °C 0.1 °C 1021.9 hPa East 1 km/h 3.7 km/h 70 % 0 mm
12:45 5.2 °C 0.1 °C 1021.9 hPa East 0.8 km/h 3.7 km/h 70 % 0 mm
12:49 5.3 °C 0.2 °C 1021.6 hPa East 1.1 km/h 3.7 km/h 70 % 0 mm
12:52 5.4 °C 0.6 °C 1021.6 hPa East 2.1 km/h 5.6 km/h 71 % 0 mm
12:55 5.6 °C 0.7 °C 1021.6 hPa East 1.8 km/h 4.8 km/h 71 % 0 mm
13:02 5.8 °C 1 °C 1021.6 hPa East 1.4 km/h 5.6 km/h 71 % 0 mm
13:07 6 °C 1.1 °C 1021.2 hPa East 0.3 km/h 3.7 km/h 71 % 0 mm
13:09 6 °C 1.1 °C 1021.2 hPa East 0.5 km/h 1.9 km/h 71 % 0 mm
13:23 6.4 °C 2.2 °C 1020.9 hPa Calm   1.9 km/h 74 % 0 mm
13:24 6.4 °C 2.2 °C 1020.9 hPa SSE 1 km/h 3.7 km/h 74 % 0 mm
13:26 6.5 °C 2.4 °C 1020.9 hPa SE 1.4 km/h 3.7 km/h 75 % 0 mm
13:31 6.7 °C 2.6 °C 1020.9 hPa ESE 0.2 km/h   75 % 0 mm
13:36 6.8 °C 2.8 °C 1020.9 hPa ESE 0.2 km/h 3.7 km/h 76 % 0 mm
13:41 6.9 °C 3 °C 1020.9 hPa Calm   1.9 km/h 76 % 0 mm
13:44 6.9 °C 3.2 °C 1020.9 hPa Calm     77 % 0 mm
13:49 7.2 °C 3.6 °C 1021.2 hPa SSE 6.4 km/h 12.9 km/h 78 % 0 mm
13:51 7.2 °C 3.8 °C 1020.9 hPa SSE 2.3 km/h 5.6 km/h 79 % 0 mm
14:00 7.6 °C 4.2 °C 1020.9 hPa South 6 km/h 11.1 km/h 79 % 0 mm
14:05 7.8 °C 4.4 °C 1020.9 hPa SSE 1.6 km/h 5.6 km/h 79 % 0 mm
14:07 7.9 °C 4.5 °C 1020.9 hPa South 4.2 km/h 9.3 km/h 79 % 0 mm
14:10 8 °C 4.6 °C 1020.9 hPa ESE 7.2 km/h 13 km/h 79 % 0 mm
14:15 8.2 °C 4.7 °C 1020.9 hPa SE 6.6 km/h 11.3 km/h 79 % 0 mm
14:17 8.2 °C 4.8 °C 1020.9 hPa South 6.8 km/h 9.3 km/h 79 % 0 mm
14:19 8.2 °C 4.8 °C 1020.9 hPa ESE 4.2 km/h 8 km/h 79 % 0 mm
14:24 8.3 °C 4.9 °C 1020.9 hPa SSE 8.5 km/h 12.9 km/h 79 % 0 mm
14:26 8.3 °C 4.9 °C 1020.9 hPa SSE 3.2 km/h 16.7 km/h 79 % 0 mm
14:31 8.4 °C 4.8 °C 1020.9 hPa SSE 4.8 km/h 11.3 km/h 78 % 0 mm
14:35 8.4 °C 5 °C 1020.9 hPa SSE 8 km/h 11.1 km/h 79 % 0 mm
14:40 8.5 °C 5.1 °C 1020.9 hPa ESE 5.1 km/h 11.1 km/h 79 % 0 mm
14:42 8.6 °C 5.1 °C 1020.9 hPa ESE 5.8 km/h 11.1 km/h 79 % 0 mm
14:45 8.6 °C 5.1 °C 1020.9 hPa SSE 3.5 km/h 9.3 km/h 79 % 0 mm
14:50 8.6 °C 5.1 °C 1020.9 hPa SE 2.6 km/h 3.7 km/h 79 % 0 mm
14:54 8.6 °C 5.1 °C 1020.9 hPa SE 3.5 km/h 7.4 km/h 79 % 0 mm
14:59 8.6 °C 5.2 °C 1020.9 hPa ESE 5.5 km/h 8 km/h 79 % 0 mm
15:01 8.6 °C 5.2 °C 1020.9 hPa SSE 2.7 km/h 7.4 km/h 79 % 0 mm
15:09 8.6 °C 5.3 °C 1020.5 hPa SE 3.4 km/h 7.4 km/h 80 % 0 mm
15:14 8.6 °C 5.3 °C 1020.5 hPa SE 6.9 km/h 11.1 km/h 80 % 0 mm
15:16 8.6 °C 5.3 °C 1020.5 hPa ESE 3.9 km/h 7.4 km/h 80 % 0 mm
15:19 8.6 °C 5.3 °C 1020.5 hPa SSE 0.8 km/h 7.4 km/h 80 % 0 mm
15:24 8.6 °C 5.6 °C 1020.5 hPa SSE 1.3 km/h 5.6 km/h 81 % 0 mm
15:28 8.6 °C 5.6 °C 1020.5 hPa South 6.3 km/h 9.3 km/h 81 % 0 mm
15:33 8.7 °C 5.6 °C 1020.5 hPa SSE 5 km/h 8 km/h 81 % 0 mm
15:40 8.7 °C 5.6 °C 1020.2 hPa SSE 4.8 km/h 6.4 km/h 81 % 0 mm
15:45 8.7 °C 5.6 °C 1020.2 hPa SSE 2.9 km/h 5.6 km/h 81 % 0 mm
15:51 8.6 °C 5.7 °C 1020.2 hPa SSE 0.5 km/h 3.7 km/h 82 % 0 mm
15:57 8.6 °C 5.7 °C 1020.2 hPa SSE 1.8 km/h 6.4 km/h 82 % 0 mm
16:02 8.6 °C 5.7 °C 1019.9 hPa SSE 1.9 km/h 7.4 km/h 82 % 0 mm
16:06 8.7 °C 5.8 °C 1020.2 hPa SSE 6.3 km/h 9.3 km/h 82 % 0 mm
16:11 8.7 °C 5.9 °C 1019.9 hPa SE 2.4 km/h 7.4 km/h 83 % 0 mm
16:14 8.6 °C 5.9 °C 1019.9 hPa SE 7.1 km/h 13 km/h 83 % 0 mm
16:19 8.6 °C 5.9 °C 1020.2 hPa Calm     83 % 0 mm
16:20 8.6 °C 5.9 °C 1020.2 hPa Calm     83 % 0 mm
16:25 8.6 °C 5.9 °C 1020.2 hPa SE 1.3 km/h 1.9 km/h 83 % 0 mm
16:26 8.6 °C 5.9 °C 1020.2 hPa SSE 2.3 km/h 8 km/h 83 % 0 mm
16:27 8.6 °C 5.9 °C 1020.2 hPa South 0.3 km/h 5.6 km/h 83 % 0 mm
16:32 8.6 °C 5.9 °C 1020.5 hPa SSE 3.2 km/h 7.4 km/h 83 % 0 mm
16:34 8.6 °C 5.9 °C 1020.2 hPa SSE 4.7 km/h 5.6 km/h 83 % 0 mm
16:38 8.6 °C 5.9 °C 1020.2 hPa SE 3.4 km/h 5.6 km/h 83 % 0 mm
16:42 8.6 °C 5.9 °C 1020.5 hPa SE 0.3 km/h 1.9 km/h 83 % 0 mm
16:48 8.6 °C 6.1 °C 1020.5 hPa ESE 2.3 km/h 4.8 km/h 84 % 0 mm
16:49 8.6 °C 6.1 °C 1020.2 hPa ESE 0.3 km/h 5.6 km/h 84 % 0 mm
16:54 8.6 °C 5.8 °C 1020.2 hPa Calm     83 % 0 mm
16:59 8.6 °C 5.8 °C 1020.5 hPa Calm     83 % 0 mm
17:00 8.6 °C 5.8 °C 1020.5 hPa Calm   1.6 km/h 83 % 0 mm
17:06 8.6 °C 6.1 °C 1020.5 hPa Calm   1.9 km/h 84 % 0 mm
17:07 8.6 °C 6.1 °C 1020.5 hPa Calm     84 % 0 mm
17:11 8.6 °C 6.1 °C 1020.5 hPa WNW 1.4 km/h 4.8 km/h 84 % 0 mm
17:16 8.6 °C 6.2 °C 1020.5 hPa WNW 0.5 km/h 3.7 km/h 85 % 0 mm
17:19 8.6 °C 6.2 °C 1020.5 hPa Calm     85 % 0 mm
17:24 8.6 °C 6.2 °C 1020.2 hPa SSE 0.5 km/h 1.9 km/h 85 % 0 mm
17:29 8.6 °C 6.2 °C 1020.2 hPa SSE 2.9 km/h 5.6 km/h 85 % 0 mm
17:34 8.6 °C 6.2 °C 1020.2 hPa SE 0.8 km/h 5.6 km/h 85 % 0 mm
17:38 8.6 °C 6.2 °C 1020.2 hPa SE 1.4 km/h 4.8 km/h 85 % 0 mm
17:46 8.5 °C 6.1 °C 1020.2 hPa Calm     85 % 0 mm
17:51 8.5 °C 6.1 °C 1020.5 hPa SE 0.3 km/h 1.9 km/h 85 % 0 mm
17:56 8.5 °C 6.3 °C 1020.9 hPa SE 0.6 km/h 3.7 km/h 86 % 0 mm
18:03 8.4 °C 6.2 °C 1020.9 hPa NNE 8 km/h 9.7 km/h 86 % 0 mm
18:04 8.4 °C 6.2 °C 1020.9 hPa NNE 7.6 km/h 9.3 km/h 86 % 0 mm
18:09 8.3 °C 6.1 °C 1020.9 hPa NNE 5 km/h 11.1 km/h 86 % 0 mm
18:11 8.3 °C 6.1 °C 1020.9 hPa NNE 3.2 km/h 11.3 km/h 86 % 0 mm
18:16 8 °C 5.6 °C 1020.5 hPa ENE 6.8 km/h 14.8 km/h 85 % 0 mm
18:20 7.6 °C 5.2 °C 1020.5 hPa ENE 8.4 km/h 14.8 km/h 85 % 0 mm
18:25 6.9 °C 4.8 °C 1020.5 hPa ENE 13.4 km/h 19.3 km/h 86 % 0 mm
18:26 6.7 °C 4.6 °C 1020.5 hPa NE 14.3 km/h 18.5 km/h 86 % 0 mm
18:34 5.9 °C 4.1 °C 1020.9 hPa ENE 11.9 km/h 16.7 km/h 88 % 0 mm
18:39 5.7 °C 4.1 °C 1020.5 hPa East 7.6 km/h 14.8 km/h 89 % 0 mm
18:44 5.6 °C 4.1 °C 1020.5 hPa East 8 km/h 16.7 km/h 90 % 0 mm
18:47 5.5 °C 4 °C 1020.5 hPa ENE 7.6 km/h 9.7 km/h 90 % 0 mm
18:52 5.4 °C 4.1 °C 1020.5 hPa ENE 4.8 km/h 8 km/h 91 % 0 mm
18:53 5.4 °C 4.1 °C 1020.5 hPa East 6.8 km/h 9.3 km/h 91 % 0 mm
18:58 5.3 °C 4 °C 1020.5 hPa ENE 5.5 km/h 13 km/h 91 % 0 mm
19:01 5.3 °C 3.9 °C 1020.5 hPa ENE 6.9 km/h 11.1 km/h 91 % 0 mm
19:08 5.2 °C 4 °C 1020.9 hPa ENE 7.6 km/h 13 km/h 92 % 0 mm
19:13 5 °C 3.8 °C 1020.9 hPa NNE 9 km/h 14.8 km/h 92 % 0 mm
19:18 4.8 °C 3.6 °C 1020.9 hPa NE 8.4 km/h 11.3 km/h 92 % 0 mm
19:23 4.6 °C 3.4 °C 1020.9 hPa ENE 11.1 km/h 14.8 km/h 92 % 0 mm
19:26 4.4 °C 3.3 °C 1020.9 hPa ENE 12.1 km/h 16.7 km/h 92 % 0 mm
19:31 4.2 °C 3.1 °C 1020.9 hPa ENE 6.4 km/h 11.1 km/h 92 % 0 mm
19:35 4.2 °C 3 °C 1020.9 hPa ENE 6.9 km/h 8 km/h 92 % 0 mm
19:37 4.1 °C 2.9 °C 1020.9 hPa ENE 7.6 km/h 14.8 km/h 92 % 0 mm
19:42 4 °C 2.8 °C 1020.9 hPa ENE 10.8 km/h 16.7 km/h 92 % 0 mm
19:47 3.9 °C 2.7 °C 1020.9 hPa ENE 13.8 km/h 17.7 km/h 92 % 0 mm
19:48 3.9 °C 2.7 °C 1020.9 hPa NE 12.7 km/h 18.5 km/h 92 % 0 mm
19:53 3.8 °C 2.6 °C 1020.9 hPa ENE 12.1 km/h 16.7 km/h 92 % 0 mm
19:54 3.8 °C 2.7 °C 1020.9 hPa ENE 11.7 km/h 16.7 km/h 92 % 0 mm
19:58 3.7 °C 2.6 °C 1020.9 hPa NE 11.3 km/h 14.8 km/h 92 % 0 mm
20:01 3.7 °C 2.5 °C 1020.9 hPa ENE 11.3 km/h 16.7 km/h 92 % 0 mm
20:04 3.6 °C 2.4 °C 1020.9 hPa ENE 12.1 km/h 16.7 km/h 92 % 0 mm
20:08 3.6 °C 2.4 °C 1020.9 hPa ENE 11.6 km/h 18.5 km/h 92 % 0 mm
20:13 3.4 °C 2.2 °C 1021.2 hPa NE 8.4 km/h 14.8 km/h 92 % 0 mm
20:20 3.3 °C 2.2 °C 1020.9 hPa East 9.8 km/h 14.8 km/h 92 % 0 mm
20:24 3.2 °C 2.1 °C 1020.9 hPa ENE 10.6 km/h 16.7 km/h 92 % 0 mm
20:29 3.2 °C 2 °C 1020.9 hPa East 11.1 km/h 14.8 km/h 92 % 0 mm
20:30 3.1 °C 1.9 °C 1020.9 hPa ENE 10.1 km/h 14.8 km/h 92 % 0 mm
20:35 3.1 °C 2.1 °C 1020.9 hPa ENE 8.7 km/h 13 km/h 93 % 0 mm
20:40 3 °C 2 °C 1020.9 hPa ENE 9.3 km/h 14.8 km/h 93 % 0 mm
20:45 2.9 °C 1.9 °C 1020.9 hPa ENE 8.9 km/h 18.5 km/h 93 % 0 mm
20:47 2.9 °C 1.9 °C 1020.9 hPa NE 10.1 km/h 13 km/h 93 % 0 mm
20:52 2.8 °C 1.8 °C 1020.9 hPa ENE 10.9 km/h 16.7 km/h 93 % 0 mm
20:55 2.8 °C 1.8 °C 1020.9 hPa ENE 9 km/h 14.5 km/h 93 % 0 mm
21:00 2.8 °C 1.8 °C 1020.9 hPa ENE 7.6 km/h 11.3 km/h 93 % 0 mm
21:07 2.7 °C 1.7 °C 1021.2 hPa ENE 13.5 km/h 18.5 km/h 93 % 0 mm
21:09 2.7 °C 1.7 °C 1021.2 hPa ENE 8.7 km/h 13 km/h 93 % 0 mm
21:12 2.7 °C 1.7 °C 1021.2 hPa NE 8.9 km/h 14.8 km/h 93 % 0 mm
21:18 2.6 °C 1.6 °C 1021.2 hPa ENE 8.7 km/h 14.5 km/h 93 % 0 mm
21:21 2.6 °C 1.6 °C 1021.6 hPa ENE 10.8 km/h 14.8 km/h 93 % 0 mm
21:27 2.4 °C 1.4 °C 1021.2 hPa ENE 7.4 km/h 13 km/h 93 % 0 mm
21:28 2.4 °C 1.4 °C 1021.2 hPa ENE 8.9 km/h 14.8 km/h 93 % 0 mm
21:33 2.4 °C 1.4 °C 1021.2 hPa ENE 10.3 km/h 14.8 km/h 93 % 0 mm
21:35 2.3 °C 1.3 °C 1021.2 hPa ENE 11.4 km/h 16.7 km/h 93 % 0 mm
21:40 2.3 °C 1.3 °C 1021.2 hPa East 8.4 km/h 11.1 km/h 93 % 0 mm
21:42 2.3 °C 1.3 °C 1021.2 hPa East 7.4 km/h 13 km/h 93 % 0 mm
21:43 2.3 °C 1.3 °C 1021.2 hPa NE 8.9 km/h 12.9 km/h 93 % 0 mm
21:48 2.3 °C 1.3 °C 1021.2 hPa ENE 5.5 km/h 13 km/h 93 % 0 mm
21:53 2.3 °C 1.3 °C 1021.2 hPa NE 7.2 km/h 11.1 km/h 93 % 0 mm
21:57 2.2 °C 1.2 °C 1021.2 hPa ENE 8.7 km/h 13 km/h 93 % 0 mm
22:02 2.2 °C 1.2 °C 1021.2 hPa ENE 6.8 km/h 9.3 km/h 93 % 0 mm
22:05 2.2 °C 1.2 °C 1020.9 hPa ENE 7.4 km/h 11.3 km/h 93 % 0 mm
22:10 2.2 °C 1.2 °C 1020.9 hPa ENE 5.1 km/h 14.8 km/h 93 % 0 mm
22:15 2.2 °C 1.2 °C 1020.9 hPa ENE 5.5 km/h 13 km/h 93 % 0 mm
22:19 2.2 °C 1.2 °C 1020.9 hPa ENE 6.3 km/h 11.1 km/h 93 % 0 mm
22:21 2.2 °C 1.2 °C 1020.9 hPa ENE 5.5 km/h 11.1 km/h 93 % 0 mm
22:26 2.1 °C 1.1 °C 1021.2 hPa ENE 7.7 km/h 11.1 km/h 93 % 0 mm
22:31 2.1 °C 1.1 °C 1021.2 hPa NE 7.4 km/h 14.8 km/h 93 % 0 mm
22:32 2.1 °C 1.1 °C 1021.2 hPa NE 7.6 km/h 14.8 km/h 93 % 0 mm
22:33 2.1 °C 1.1 °C 1021.2 hPa ENE 11.6 km/h 14.8 km/h 93 % 0 mm
22:39 2.1 °C 1.1 °C 1021.2 hPa ENE 9 km/h 14.8 km/h 93 % 0 mm
22:41 2.1 °C 1.1 °C 1021.2 hPa ENE 8 km/h 14.5 km/h 93 % 0 mm
22:46 2.2 °C 1.3 °C 1021.2 hPa ENE 8 km/h 16.1 km/h 94 % 0 mm
22:51 2.2 °C 1.3 °C 1021.2 hPa ENE 8 km/h 14.5 km/h 94 % 0 mm
22:52 2.2 °C 1.3 °C 1021.2 hPa NE 7.9 km/h 13 km/h 94 % 0 mm
22:57 2.2 °C 1.3 °C 1021.2 hPa ENE 6.3 km/h 11.1 km/h 94 % 0 mm
23:01 2.2 °C 1.3 °C 1021.6 hPa ENE 5.6 km/h 14.8 km/h 94 % 0 mm
23:06 2.1 °C 1.2 °C 1021.2 hPa ENE 5.8 km/h 11.1 km/h 94 % 0 mm
23:09 2.2 °C 1.3 °C 1021.2 hPa ENE 5.3 km/h 7.4 km/h 94 % 0 mm
23:12 2.2 °C 1.3 °C 1021.2 hPa ENE 5.3 km/h 7.4 km/h 94 % 0 mm
23:14 2.2 °C 1.3 °C 1020.9 hPa ENE 5.3 km/h 7.4 km/h 94 % 0 mm
23:19 2.2 °C 1.3 °C 1020.9 hPa ENE 6.8 km/h 14.8 km/h 94 % 0 mm
23:20 2.2 °C 1.3 °C 1020.9 hPa ENE 6.3 km/h 11.1 km/h 94 % 0 mm
23:25 2.1 °C 1.2 °C 1020.5 hPa East 6 km/h 11.1 km/h 94 % 0 mm
23:31 2.1 °C 1.2 °C 1020.9 hPa ENE 3.2 km/h 11.3 km/h 94 % 0 mm
23:33 2.1 °C 1.2 °C 1020.9 hPa East 5.3 km/h 8 km/h 94 % 0 mm
23:36 2.1 °C 1.2 °C 1020.5 hPa ENE 7.9 km/h 11.3 km/h 94 % 0 mm
23:41 2.1 °C 1.2 °C 1020.5 hPa ENE 8 km/h 12.9 km/h 94 % 0 mm
23:46 2.1 °C 1.2 °C 1020.5 hPa ENE 4.8 km/h 11.3 km/h 94 % 0 mm
23:47 2.1 °C 1.2 °C 1020.5 hPa ENE 6.4 km/h 8 km/h 94 % 0 mm
23:51 2.1 °C 1.2 °C 1020.5 hPa ENE 6.3 km/h 12.9 km/h 94 % 0 mm
23:52 2.1 °C 1.2 °C 1020.5 hPa East 7.1 km/h 13 km/h 94 % 0 mm
23:57 2.1 °C 1.2 °C 1020.5 hPa ENE 7.7 km/h 11.3 km/h 94 % 0 mm
Crab Meadow Weather
Compliments of Weather Underground - 3.25 mb

Script developed by  Jim McMurry - jmcmurry@mwt.net Adapted for the template by  Wim van der Kuil - Leuven-Template.eu

Weather Terms: Severe Thunderstorm Watch - Conditions are favorable for the development of severe thunderstorms in and close to the watch area. These watches are issued for large areas by the Storm Prediction Center in Norman, Oklahoma, and are usually valid for four to six hours.